Time,TemperatureF,DewpointF,PressureIn,WindDirection,WindDirectionDegrees,WindSpeedMPH,WindSpeedGustMPH,Humidity,HourlyPrecipIn,Conditions,Clouds,dailyrainin,SoftwareType,DateUTC
2013-04-19 00:00:00,74.3,44.7,28.73,SSE,157,6.5,11.9,35,0.00,,,0.00,WUHU216WMR100,2013-04-19 04:00:00,
2013-04-19 00:01:00,74.5,44.1,28.73,SSW,202,6.5,11.9,34,0.00,,,0.00,WUHU216WMR100,2013-04-19 04:01:00,
2013-04-19 00:06:00,74.3,43.9,28.73,SSW,192,7.4,15.2,34,0.00,,,0.00,WUHU216WMR100,2013-04-19 04:06:00,
2013-04-19 00:11:00,74.3,43.9,28.73,SSW,202,9.2,15.2,34,0.00,,,0.00,WUHU216WMR100,2013-04-19 04:11:00,
2013-04-19 00:16:00,74.1,44.5,28.73,South,189,6.0,15.2,35,0.00,,,0.00,WUHU216WMR100,2013-04-19 04:16:00,
2013-04-19 00:21:00,73.8,44.3,28.73,SSW,202,4.7,10.5,35,0.00,,,0.00,WUHU216WMR100,2013-04-19 04:21:00,
2013-04-19 00:26:00,73.8,44.3,28.73,South,170,7.0,10.7,35,0.00,,,0.00,WUHU216WMR100,2013-04-19 04:26:00,
2013-04-19 00:31:00,73.8,44.3,28.73,SSW,202,8.1,10.7,35,0.00,,,0.00,WUHU216WMR100,2013-04-19 04:31:00,
2013-04-19 00:36:00,73.6,44.1,28.70,SE,145,5.7,11.0,35,0.00,,,0.00,WUHU216WMR100,2013-04-19 04:36:00,
2013-04-19 00:41:00,73.6,44.1,28.70,South,182,6.0,11.0,35,0.00,,,0.00,WUHU216WMR100,2013-04-19 04:41:00,
2013-04-19 00:46:00,73.6,44.1,28.70,South,180,7.4,12.3,35,0.00,,,0.00,WUHU216WMR100,2013-04-19 04:46:00,
2013-04-19 00:51:00,73.4,43.9,28.70,South,189,6.4,12.3,35,0.00,,,0.00,WUHU216WMR100,2013-04-19 04:51:00,
2013-04-19 00:56:00,73.2,43.7,28.70,SSW,207,5.6,10.5,35,0.00,,,0.00,WUHU216WMR100,2013-04-19 04:56:00,
2013-04-19 01:01:00,73.2,43.7,28.70,SSW,208,6.2,12.8,35,0.00,,,0.00,WUHU216WMR100,2013-04-19 05:01:00,
2013-04-19 01:06:00,73.2,43.7,28.70,South,186,5.1,12.8,35,0.00,,,0.00,WUHU216WMR100,2013-04-19 05:06:00,
2013-04-19 01:11:00,73.0,43.6,28.70,South,180,7.4,12.5,35,0.00,,,0.00,WUHU216WMR100,2013-04-19 05:11:00,
2013-04-19 01:16:00,73.0,44.3,28.70,SSW,202,4.5,10.5,36,0.00,,,0.00,WUHU216WMR100,2013-04-19 05:16:00,
2013-04-19 01:21:00,73.0,43.6,28.70,SSW,202,7.8,11.0,35,0.00,,,0.00,WUHU216WMR100,2013-04-19 05:21:00,
2013-04-19 01:26:00,72.9,43.5,28.70,South,186,6.0,11.0,35,0.00,,,0.00,WUHU216WMR100,2013-04-19 05:26:00,
2013-04-19 01:31:00,72.7,44.0,28.70,South,180,5.3,9.8,36,0.00,,,0.00,WUHU216WMR100,2013-04-19 05:31:00,
2013-04-19 01:36:00,72.9,44.2,28.67,South,187,4.9,10.5,36,0.00,,,0.00,WUHU216WMR100,2013-04-19 05:36:00,
2013-04-19 01:41:00,72.9,43.5,28.67,South,180,6.3,11.9,35,0.00,,,0.00,WUHU216WMR100,2013-04-19 05:41:00,
2013-04-19 01:46:00,72.5,43.9,28.67,SSW,194,5.1,11.9,36,0.00,,,0.00,WUHU216WMR100,2013-04-19 05:46:00,
2013-04-19 01:51:00,72.5,43.9,28.67,South,189,5.0,11.0,36,0.00,,,0.00,WUHU216WMR100,2013-04-19 05:51:00,
2013-04-19 01:56:00,72.3,43.7,28.67,SSE,165,6.1,11.0,36,0.00,,,0.00,WUHU216WMR100,2013-04-19 05:56:00,
2013-04-19 02:01:00,72.3,43.7,28.67,South,186,6.2,10.7,36,0.00,,,0.00,WUHU216WMR100,2013-04-19 06:01:00,
2013-04-19 02:06:00,72.3,43.7,28.67,South,180,6.1,11.0,36,0.00,,,0.00,WUHU216WMR100,2013-04-19 06:06:00,
2013-04-19 02:11:00,72.1,44.2,28.67,South,180,6.5,11.0,37,0.00,,,0.00,WUHU216WMR100,2013-04-19 06:11:00,
2013-04-19 02:16:00,72.1,44.2,28.67,SSE,162,7.7,14.5,37,0.00,,,0.00,WUHU216WMR100,2013-04-19 06:16:00,
2013-04-19 02:21:00,71.8,44.0,28.67,SSW,202,6.9,14.5,37,0.00,,,0.00,WUHU216WMR100,2013-04-19 06:21:00,
2013-04-19 02:26:00,71.8,44.0,28.67,SSE,157,6.5,11.9,37,0.00,,,0.00,WUHU216WMR100,2013-04-19 06:26:00,
2013-04-19 02:31:00,71.6,44.5,28.67,SSW,202,6.0,11.9,38,0.00,,,0.00,WUHU216WMR100,2013-04-19 06:31:00,
2013-04-19 02:36:00,71.2,44.8,28.67,South,180,4.9,8.7,39,0.00,,,0.00,WUHU216WMR100,2013-04-19 06:36:00,
2013-04-19 02:41:00,71.2,44.8,28.67,South,179,5.1,12.3,39,0.00,,,0.00,WUHU216WMR100,2013-04-19 06:41:00,
2013-04-19 02:46:00,71.1,45.4,28.67,South,185,4.8,12.3,40,0.00,,,0.00,WUHU216WMR100,2013-04-19 06:46:00,
2013-04-19 02:51:00,71.1,45.4,28.64,South,184,5.4,10.7,40,0.00,,,0.00,WUHU216WMR100,2013-04-19 06:51:00,
2013-04-19 02:56:00,71.1,45.4,28.64,South,177,6.7,10.7,40,0.00,,,0.00,WUHU216WMR100,2013-04-19 06:56:00,
2013-04-19 03:01:00,71.1,46.1,28.64,SSW,202,6.9,10.3,41,0.00,,,0.00,WUHU216WMR100,2013-04-19 07:01:00,
2013-04-19 03:06:00,71.1,46.1,28.64,SSE,157,6.7,14.1,41,0.00,,,0.00,WUHU216WMR100,2013-04-19 07:06:00,
2013-04-19 03:11:00,70.9,45.9,28.64,South,182,6.2,14.1,41,0.00,,,0.00,WUHU216WMR100,2013-04-19 07:11:00,
2013-04-19 03:16:00,71.1,46.1,28.64,SSW,202,8.1,11.0,41,0.00,,,0.00,WUHU216WMR100,2013-04-19 07:16:00,
2013-04-19 03:21:00,71.1,46.8,28.64,SSW,202,6.3,13.4,42,0.00,,,0.00,WUHU216WMR100,2013-04-19 07:21:00,
2013-04-19 03:26:00,71.1,46.8,28.64,South,186,6.3,13.4,42,0.00,,,0.00,WUHU216WMR100,2013-04-19 07:26:00,
2013-04-19 03:31:00,70.9,46.6,28.64,SSE,157,6.7,12.5,42,0.00,,,0.00,WUHU216WMR100,2013-04-19 07:31:00,
2013-04-19 03:36:00,70.9,46.6,28.61,South,179,5.5,12.3,42,0.00,,,0.00,WUHU216WMR100,2013-04-19 07:36:00,
2013-04-19 03:41:00,70.7,47.0,28.61,SSW,208,4.6,12.3,43,0.00,,,0.00,WUHU216WMR100,2013-04-19 07:41:00,
2013-04-19 03:46:00,70.7,47.0,28.61,SSE,157,6.3,12.8,43,0.00,,,0.00,WUHU216WMR100,2013-04-19 07:46:00,
2013-04-19 03:51:00,70.7,47.0,28.61,South,180,6.7,12.8,43,0.00,,,0.00,WUHU216WMR100,2013-04-19 07:51:00,
2013-04-19 03:56:00,70.5,46.9,28.61,South,185,5.5,11.2,43,0.00,,,0.00,WUHU216WMR100,2013-04-19 07:56:00,
2013-04-19 04:01:00,70.7,47.7,28.61,SSW,202,6.5,13.0,44,0.00,,,0.00,WUHU216WMR100,2013-04-19 08:01:00,
2013-04-19 04:06:00,70.7,47.7,28.61,SSW,202,8.5,13.0,44,0.00,,,0.00,WUHU216WMR100,2013-04-19 08:06:00,
2013-04-19 04:11:00,70.7,47.7,28.61,South,170,5.0,12.3,44,0.00,,,0.00,WUHU216WMR100,2013-04-19 08:11:00,
2013-04-19 04:16:00,70.5,47.5,28.61,South,187,5.7,10.5,44,0.00,,,0.00,WUHU216WMR100,2013-04-19 08:16:00,
2013-04-19 04:21:00,70.7,47.7,28.61,South,170,8.5,13.2,44,0.00,,,0.00,WUHU216WMR100,2013-04-19 08:21:00,
2013-04-19 04:26:00,70.5,48.1,28.61,SSW,202,4.9,13.2,45,0.00,,,0.00,WUHU216WMR100,2013-04-19 08:26:00,
2013-04-19 04:31:00,70.5,48.1,28.61,South,190,4.6,13.2,45,0.00,,,0.00,WUHU216WMR100,2013-04-19 08:31:00,
2013-04-19 04:36:00,70.5,48.1,28.61,SSE,161,5.4,13.2,45,0.00,,,0.00,WUHU216WMR100,2013-04-19 08:36:00,
2013-04-19 04:41:00,70.7,48.3,28.61,South,180,8.7,13.2,45,0.00,,,0.00,WUHU216WMR100,2013-04-19 08:41:00,
2013-04-19 04:46:00,70.5,48.7,28.61,SSE,166,4.4,13.2,46,0.00,,,0.00,WUHU216WMR100,2013-04-19 08:46:00,
2013-04-19 04:51:00,70.5,48.7,28.59,SSE,167,7.7,12.5,46,0.00,,,0.00,WUHU216WMR100,2013-04-19 08:51:00,
2013-04-19 04:56:00,70.5,48.7,28.59,South,180,7.6,12.8,46,0.00,,,0.00,WUHU216WMR100,2013-04-19 08:56:00,
2013-04-19 05:01:00,70.5,48.7,28.59,SSE,157,6.5,12.8,46,0.00,,,0.00,WUHU216WMR100,2013-04-19 09:01:00,
2013-04-19 05:06:00,70.5,48.7,28.59,SSE,157,8.9,12.8,46,0.00,,,0.00,WUHU216WMR100,2013-04-19 09:06:00,
2013-04-19 05:11:00,70.5,49.3,28.59,South,183,5.8,10.5,47,0.00,,,0.00,WUHU216WMR100,2013-04-19 09:11:00,
2013-04-19 05:16:00,70.5,49.3,28.59,South,186,5.8,12.3,47,0.00,,,0.00,WUHU216WMR100,2013-04-19 09:16:00,
2013-04-19 05:21:00,70.5,49.3,28.59,SSW,195,6.1,12.3,47,0.00,,,0.00,WUHU216WMR100,2013-04-19 09:21:00,
2013-04-19 05:26:00,70.3,49.1,28.59,SSE,157,6.9,10.3,47,0.00,,,0.00,WUHU216WMR100,2013-04-19 09:26:00,
2013-04-19 05:32:00,70.5,49.3,28.59,South,170,7.6,13.0,47,0.00,,,0.00,WUHU216WMR100,2013-04-19 09:32:00,
2013-04-19 05:37:00,70.9,49.7,28.59,SSW,202,9.4,16.1,47,0.00,,,0.00,WUHU216WMR100,2013-04-19 09:37:00,
2013-04-19 05:42:00,70.7,49.5,28.59,SSE,163,5.1,16.1,47,0.00,,,0.00,WUHU216WMR100,2013-04-19 09:42:00,
2013-04-19 05:47:00,70.9,49.7,28.59,South,174,7.8,13.6,47,0.00,,,0.00,WUHU216WMR100,2013-04-19 09:47:00,
2013-04-19 05:52:00,70.7,49.5,28.56,South,189,6.6,13.2,47,0.00,,,0.00,WUHU216WMR100,2013-04-19 09:52:00,
2013-04-19 05:57:00,70.7,50.1,28.56,South,183,6.9,13.2,48,0.00,,,0.00,WUHU216WMR100,2013-04-19 09:57:00,
2013-04-19 06:02:00,70.5,49.9,28.56,SSW,202,5.4,10.7,48,0.00,,,0.00,WUHU216WMR100,2013-04-19 10:02:00,
2013-04-19 06:07:00,70.5,49.9,28.56,South,187,4.6,17.7,48,0.00,,,0.00,WUHU216WMR100,2013-04-19 10:07:00,
2013-04-19 06:12:00,70.5,49.9,28.56,South,183,5.3,17.7,48,0.00,,,0.00,WUHU216WMR100,2013-04-19 10:12:00,
2013-04-19 06:17:00,70.5,49.9,28.56,SSE,157,5.4,13.0,48,0.00,,,0.00,WUHU216WMR100,2013-04-19 10:17:00,
2013-04-19 06:22:00,70.7,50.1,28.56,SSW,202,6.5,14.5,48,0.00,,,0.00,WUHU216WMR100,2013-04-19 10:22:00,
2013-04-19 06:27:00,70.7,50.1,28.56,SSW,199,7.6,14.5,48,0.00,,,0.00,WUHU216WMR100,2013-04-19 10:27:00,
2013-04-19 06:32:00,70.5,50.5,28.56,South,181,4.7,14.3,49,0.00,,,0.00,WUHU216WMR100,2013-04-19 10:32:00,
2013-04-19 06:37:00,70.5,50.5,28.56,West,270,4.9,8.7,49,0.00,,,0.00,WUHU216WMR100,2013-04-19 10:37:00,
2013-04-19 06:42:00,70.7,50.1,28.56,SSE,163,8.1,14.5,48,0.00,,,0.00,WUHU216WMR100,2013-04-19 10:42:00,
2013-04-19 06:47:00,70.7,50.6,28.56,WSW,247,6.3,14.5,49,0.00,,,0.00,WUHU216WMR100,2013-04-19 10:47:00,
2013-04-19 06:52:00,70.7,50.6,28.56,SSW,194,5.2,10.3,49,0.00,,,0.00,WUHU216WMR100,2013-04-19 10:52:00,
2013-04-19 06:57:00,70.7,50.6,28.56,SSW,205,6.1,16.1,49,0.00,,,0.00,WUHU216WMR100,2013-04-19 10:57:00,
2013-04-19 07:02:00,70.7,50.6,28.53,South,171,7.5,16.1,49,0.00,,,0.00,WUHU216WMR100,2013-04-19 11:02:00,
2013-04-19 07:07:00,70.9,50.8,28.53,SSW,199,9.0,14.5,49,0.00,,,0.00,WUHU216WMR100,2013-04-19 11:07:00,
2013-04-19 07:12:00,70.9,50.8,28.53,SSW,202,6.5,14.5,49,0.00,,,0.00,WUHU216WMR100,2013-04-19 11:12:00,
2013-04-19 07:17:00,70.9,50.8,28.56,South,184,5.3,10.7,49,0.00,,,0.00,WUHU216WMR100,2013-04-19 11:17:00,
2013-04-19 07:22:00,70.9,51.4,28.56,SSW,202,6.5,13.2,50,0.00,,,0.00,WUHU216WMR100,2013-04-19 11:22:00,
2013-04-19 07:27:00,70.7,51.8,28.56,SSW,202,9.6,17.4,51,0.00,,,0.00,WUHU216WMR100,2013-04-19 11:27:00,
2013-04-19 07:32:00,70.3,52.5,28.56,SW,219,6.5,17.4,53,0.00,,,0.00,WUHU216WMR100,2013-04-19 11:32:00,
2013-04-19 07:37:00,69.1,55.3,28.56,South,175,5.3,11.9,61,0.00,,,0.00,WUHU216WMR100,2013-04-19 11:37:00,
2013-04-19 07:42:00,68.4,55.5,28.56,South,190,5.2,12.1,63,0.00,,,0.00,WUHU216WMR100,2013-04-19 11:42:00,
2013-04-19 07:47:00,68.2,55.7,28.53,SSW,201,8.1,15.4,64,0.00,,,0.00,WUHU216WMR100,2013-04-19 11:47:00,
2013-04-19 07:52:00,68.0,56.0,28.53,SSW,202,8.1,15.4,65,0.00,,,0.00,WUHU216WMR100,2013-04-19 11:52:00,
2013-04-19 07:57:00,67.6,56.8,28.53,SSW,202,3.8,9.6,68,0.00,,,0.00,WUHU216WMR100,2013-04-19 11:57:00,
2013-04-19 08:02:00,67.3,56.9,28.53,SSW,202,6.0,10.1,69,0.00,,,0.00,WUHU216WMR100,2013-04-19 12:02:00,
2013-04-19 08:07:00,67.3,57.3,28.53,South,175,6.0,15.2,70,0.00,,,0.00,WUHU216WMR100,2013-04-19 12:07:00,
2013-04-19 08:12:00,67.1,57.5,28.53,SSE,162,6.9,15.2,71,0.00,,,0.00,WUHU216WMR100,2013-04-19 12:12:00,
2013-04-19 08:17:00,66.7,57.5,28.50,South,180,4.5,8.7,72,0.04,,,0.04,WUHU216WMR100,2013-04-19 12:17:00,
2013-04-19 08:22:00,66.6,57.4,28.50,South,184,6.6,10.5,72,0.04,,,0.04,WUHU216WMR100,2013-04-19 12:22:00,
2013-04-19 08:27:00,66.4,58.0,28.50,SSE,157,6.5,14.3,74,0.04,,,0.04,WUHU216WMR100,2013-04-19 12:27:00,
2013-04-19 08:32:00,66.2,58.2,28.50,South,180,4.9,14.3,75,0.00,,,0.04,WUHU216WMR100,2013-04-19 12:32:00,
2013-04-19 08:37:00,66.0,58.3,28.50,SSE,163,4.7,10.5,76,0.00,,,0.04,WUHU216WMR100,2013-04-19 12:37:00,
2013-04-19 08:42:00,65.8,58.8,28.50,South,178,4.3,7.6,78,0.00,,,0.04,WUHU216WMR100,2013-04-19 12:42:00,
2013-04-19 08:47:00,65.8,58.8,28.50,SSW,202,4.5,9.2,78,0.00,,,0.04,WUHU216WMR100,2013-04-19 12:47:00,
2013-04-19 08:52:00,65.8,58.8,28.50,SSW,202,4.0,9.2,78,0.00,,,0.04,WUHU216WMR100,2013-04-19 12:52:00,
2013-04-19 08:57:00,65.8,58.5,28.50,South,181,5.5,8.9,77,0.00,,,0.04,WUHU216WMR100,2013-04-19 12:57:00,
2013-04-19 09:02:00,66.4,58.0,28.50,South,180,7.8,12.8,74,0.00,,,0.04,WUHU216WMR100,2013-04-19 13:02:00,
2013-04-19 09:07:00,66.9,57.7,28.50,South,184,8.1,12.8,72,0.00,,,0.04,WUHU216WMR100,2013-04-19 13:07:00,
2013-04-19 09:12:00,67.5,57.1,28.50,South,185,7.8,13.2,69,0.00,,,0.04,WUHU216WMR100,2013-04-19 13:12:00,
2013-04-19 09:17:00,68.4,55.9,28.47,South,174,10.8,18.6,64,0.00,,,0.04,WUHU216WMR100,2013-04-19 13:17:00,
2013-04-19 09:22:00,68.7,55.8,28.47,SSW,196,7.6,18.6,63,0.00,,,0.04,WUHU216WMR100,2013-04-19 13:22:00,
2013-04-19 09:27:00,68.9,55.5,28.47,SSW,202,8.7,14.3,62,0.00,,,0.04,WUHU216WMR100,2013-04-19 13:27:00,
2013-04-19 09:32:00,69.4,54.6,28.47,South,187,10.1,19.5,59,0.00,,,0.04,WUHU216WMR100,2013-04-19 13:32:00,
2013-04-19 09:37:00,70.0,53.7,28.47,SSW,213,11.2,24.2,56,0.00,,,0.04,WUHU216WMR100,2013-04-19 13:37:00,
2013-04-19 09:42:00,70.3,54.0,28.47,SSW,211,11.8,24.2,56,0.00,,,0.04,WUHU216WMR100,2013-04-19 13:42:00,
2013-04-19 09:47:00,70.2,53.9,28.47,SW,229,14.7,27.1,56,0.00,,,0.04,WUHU216WMR100,2013-04-19 13:47:00,
2013-04-19 09:52:00,70.0,54.2,28.47,SSW,208,9.3,27.1,57,0.00,,,0.04,WUHU216WMR100,2013-04-19 13:52:00,
2013-04-19 09:57:00,69.3,55.5,28.47,SSW,202,12.5,31.1,61,0.00,,,0.04,WUHU216WMR100,2013-04-19 13:57:00,
2013-04-19 10:02:00,68.5,56.0,28.50,SW,217,11.2,31.1,64,0.00,,,0.04,WUHU216WMR100,2013-04-19 14:02:00,
2013-04-19 10:07:00,67.6,57.2,28.50,SSW,195,9.7,20.6,69,0.00,,,0.04,WUHU216WMR100,2013-04-19 14:07:00,
2013-04-19 10:12:00,66.7,57.5,28.50,SSW,202,5.6,20.6,72,0.04,,,0.08,WUHU216WMR100,2013-04-19 14:12:00,
2013-04-19 10:17:00,66.2,58.5,28.50,SSW,202,8.9,12.5,76,0.04,,,0.08,WUHU216WMR100,2013-04-19 14:17:00,
2013-04-19 10:22:00,65.8,59.2,28.50,SSE,157,7.2,14.3,79,0.04,,,0.08,WUHU216WMR100,2013-04-19 14:22:00,
2013-04-19 10:27:00,62.2,50.4,28.50,WSW,247,10.7,15.2,65,0.04,,,0.08,WUHU216WMR100,2013-04-19 14:27:00,
2013-04-19 10:32:00,58.5,48.5,28.56,WNW,283,9.3,15.2,69,0.00,,,0.08,WUHU216WMR100,2013-04-19 14:32:00,
2013-04-19 10:37:00,57.2,48.4,28.56,WNW,292,5.4,13.6,72,0.00,,,0.08,WUHU216WMR100,2013-04-19 14:37:00,
2013-04-19 10:42:00,56.1,48.0,28.56,West,270,7.4,11.0,74,0.00,,,0.08,WUHU216WMR100,2013-04-19 14:42:00,
2013-04-19 10:47:00,55.6,48.6,28.56,NNW,337,4.3,11.0,77,0.00,,,0.08,WUHU216WMR100,2013-04-19 14:47:00,
2013-04-19 10:52:00,54.9,47.2,28.56,WNW,292,7.8,12.5,75,0.00,,,0.08,WUHU216WMR100,2013-04-19 14:52:00,
2013-04-19 10:57:00,54.3,47.0,28.56,West,267,5.0,12.5,76,0.00,,,0.08,WUHU216WMR100,2013-04-19 14:57:00,
2013-04-19 11:02:00,53.1,44.8,28.59,West,276,7.7,12.8,73,0.00,,,0.08,WUHU216WMR100,2013-04-19 15:02:00,
2013-04-19 11:07:00,52.5,44.5,28.59,West,267,5.9,12.8,74,0.00,,,0.08,WUHU216WMR100,2013-04-19 15:07:00,
2013-04-19 11:12:00,52.0,44.4,28.59,West,264,6.8,13.4,75,0.00,,,0.08,WUHU216WMR100,2013-04-19 15:12:00,
2013-04-19 11:17:00,51.6,44.7,28.61,NNW,337,7.4,13.4,77,0.00,,,0.08,WUHU216WMR100,2013-04-19 15:17:00,
2013-04-19 11:22:00,50.7,44.1,28.61,WSW,250,6.9,15.2,78,0.00,,,0.08,WUHU216WMR100,2013-04-19 15:22:00,
2013-04-19 11:27:00,50.5,44.6,28.61,West,272,5.8,15.2,80,0.00,,,0.08,WUHU216WMR100,2013-04-19 15:27:00,
2013-04-19 11:33:00,50.5,44.9,28.61,WNW,292,7.6,12.3,81,0.00,,,0.08,WUHU216WMR100,2013-04-19 15:33:00,
2013-04-19 11:38:00,50.7,45.7,28.61,WNW,302,3.8,12.3,83,0.00,,,0.08,WUHU216WMR100,2013-04-19 15:38:00,
2013-04-19 11:43:00,50.5,45.2,28.61,West,269,5.9,12.8,82,0.00,,,0.08,WUHU216WMR100,2013-04-19 15:43:00,
2013-04-19 11:48:00,50.5,44.9,28.61,WSW,255,6.8,12.8,81,0.00,,,0.08,WUHU216WMR100,2013-04-19 15:48:00,
2013-04-19 11:53:00,50.5,45.2,28.61,WSW,250,4.8,11.0,82,0.00,,,0.08,WUHU216WMR100,2013-04-19 15:53:00,
2013-04-19 11:58:00,50.5,45.5,28.61,NW,318,2.3,10.3,83,0.00,,,0.08,WUHU216WMR100,2013-04-19 15:58:00,
2013-04-19 12:03:00,50.5,45.8,28.61,WNW,282,4.3,9.4,84,0.00,,,0.08,WUHU216WMR100,2013-04-19 16:03:00,
2013-04-19 12:08:00,50.2,45.2,28.61,NW,313,4.9,8.1,83,0.00,,,0.08,WUHU216WMR100,2013-04-19 16:08:00,
2013-04-19 12:13:00,50.2,45.6,28.61,WNW,292,3.4,8.1,84,0.00,,,0.08,WUHU216WMR100,2013-04-19 16:13:00,
2013-04-19 12:18:00,49.8,44.9,28.64,WNW,288,7.1,13.2,83,0.00,,,0.08,WUHU216WMR100,2013-04-19 16:18:00,
2013-04-19 12:23:00,49.5,44.6,28.64,West,259,8.2,13.2,83,0.00,,,0.08,WUHU216WMR100,2013-04-19 16:23:00,
2013-04-19 12:28:00,48.9,44.3,28.64,WNW,292,7.6,13.2,84,0.00,,,0.08,WUHU216WMR100,2013-04-19 16:28:00,
2013-04-19 12:33:00,48.9,44.3,28.64,WSW,247,6.7,13.2,84,0.00,,,0.08,WUHU216WMR100,2013-04-19 16:33:00,
2013-04-19 12:38:00,49.3,45.0,28.64,WSW,247,5.8,19.7,85,0.00,,,0.08,WUHU216WMR100,2013-04-19 16:38:00,
2013-04-19 12:43:00,49.3,44.7,28.64,West,281,3.4,19.7,84,0.00,,,0.08,WUHU216WMR100,2013-04-19 16:43:00,
2013-04-19 12:48:00,49.8,44.5,28.64,West,280,5.0,10.1,82,0.00,,,0.08,WUHU216WMR100,2013-04-19 16:48:00,
2013-04-19 12:53:00,49.6,42.4,28.64,West,270,7.2,9.4,76,0.00,,,0.08,WUHU216WMR100,2013-04-19 16:53:00,
2013-04-19 12:58:00,49.5,41.3,28.64,SSW,202,6.7,10.7,73,0.00,,,0.08,WUHU216WMR100,2013-04-19 16:58:00,
2013-04-19 13:03:00,49.1,39.8,28.64,West,270,6.5,12.3,70,0.00,,,0.08,WUHU216WMR100,2013-04-19 17:03:00,
2013-04-19 13:08:00,48.4,37.7,28.64,WNW,292,8.1,15.4,66,0.00,,,0.08,WUHU216WMR100,2013-04-19 17:08:00,
2013-04-19 13:13:00,48.4,39.2,28.64,West,276,5.4,15.4,70,0.00,,,0.08,WUHU216WMR100,2013-04-19 17:13:00,
2013-04-19 13:18:00,48.0,37.7,28.67,WNW,287,8.4,13.0,67,0.00,,,0.08,WUHU216WMR100,2013-04-19 17:18:00,
2013-04-19 13:23:00,47.7,37.4,28.67,West,261,7.5,13.0,67,0.00,,,0.08,WUHU216WMR100,2013-04-19 17:23:00,
2013-04-19 13:28:00,47.7,37.8,28.67,West,277,7.3,14.5,68,0.00,,,0.08,WUHU216WMR100,2013-04-19 17:28:00,
2013-04-19 13:33:00,47.3,37.4,28.67,WSW,247,7.6,14.5,68,0.00,,,0.08,WUHU216WMR100,2013-04-19 17:33:00,
2013-04-19 13:38:00,47.7,38.1,28.67,WNW,285,4.7,12.5,69,0.00,,,0.08,WUHU216WMR100,2013-04-19 17:38:00,
2013-04-19 13:43:00,47.3,37.4,28.67,West,268,6.1,12.5,68,0.00,,,0.08,WUHU216WMR100,2013-04-19 17:43:00,
2013-04-19 13:48:00,46.9,36.2,28.67,WSW,247,7.2,15.2,66,0.00,,,0.08,WUHU216WMR100,2013-04-19 17:48:00,
2013-04-19 13:53:00,46.8,34.1,28.67,West,261,7.6,17.2,61,0.00,,,0.08,WUHU216WMR100,2013-04-19 17:53:00,
2013-04-19 13:58:00,48.0,35.7,28.67,WSW,247,5.6,17.2,62,0.00,,,0.08,WUHU216WMR100,2013-04-19 17:58:00,
2013-04-19 14:03:00,48.9,34.8,28.67,NNW,337,6.3,11.4,58,0.00,,,0.08,WUHU216WMR100,2013-04-19 18:03:00,
2013-04-19 14:08:00,49.6,33.7,28.67,WSW,247,6.9,11.9,54,0.00,,,0.08,WUHU216WMR100,2013-04-19 18:08:00,
2013-04-19 14:13:00,49.5,32.1,28.67,NNW,337,6.9,13.4,51,0.00,,,0.08,WUHU216WMR100,2013-04-19 18:13:00,
2013-04-19 14:18:00,49.3,32.4,28.70,NNW,337,6.0,13.4,52,0.00,,,0.08,WUHU216WMR100,2013-04-19 18:18:00,
2013-04-19 14:23:00,50.2,32.2,28.70,WNW,292,6.5,13.2,50,0.00,,,0.08,WUHU216WMR100,2013-04-19 18:23:00,
2013-04-19 14:28:00,49.6,31.7,28.70,West,270,6.9,13.2,50,0.00,,,0.08,WUHU216WMR100,2013-04-19 18:28:00,
2013-04-19 14:33:00,49.8,31.4,28.70,WNW,287,6.3,13.2,49,0.00,,,0.08,WUHU216WMR100,2013-04-19 18:33:00,
2013-04-19 14:39:00,50.4,31.9,28.70,West,269,5.7,11.4,49,0.00,,,0.08,WUHU216WMR100,2013-04-19 18:39:00,
2013-04-19 14:44:00,51.4,31.8,28.70,West,270,6.9,12.1,47,0.00,,,0.08,WUHU216WMR100,2013-04-19 18:44:00,
2013-04-19 14:50:00,52.5,32.2,28.70,WSW,257,7.3,19.0,46,0.00,,,0.08,WUHU216WMR100,2013-04-19 18:50:00,
2013-04-19 14:55:00,53.6,32.1,28.70,SW,225,5.6,12.8,44,0.00,,,0.08,WUHU216WMR100,2013-04-19 18:55:00,
2013-04-19 15:00:00,53.1,31.1,28.70,WSW,237,5.4,12.8,43,0.00,,,0.08,WUHU216WMR100,2013-04-19 19:00:00,
2013-04-19 15:05:00,51.8,31.0,28.70,West,270,6.0,12.5,45,0.00,,,0.08,WUHU216WMR100,2013-04-19 19:05:00,
2013-04-19 15:10:00,51.3,30.6,28.70,SW,225,8.1,14.3,45,0.00,,,0.08,WUHU216WMR100,2013-04-19 19:10:00,
2013-04-19 15:15:00,51.6,31.9,28.70,WSW,241,6.0,14.3,47,0.00,,,0.08,WUHU216WMR100,2013-04-19 19:15:00,
2013-04-19 15:20:00,51.6,28.5,28.70,WSW,247,6.9,13.9,41,0.00,,,0.08,WUHU216WMR100,2013-04-19 19:20:00,
2013-04-19 15:25:00,52.9,29.0,28.70,SSW,202,5.8,13.9,40,0.00,,,0.08,WUHU216WMR100,2013-04-19 19:25:00,
2013-04-19 15:30:00,51.8,27.4,28.70,WSW,247,7.4,13.0,39,0.00,,,0.08,WUHU216WMR100,2013-04-19 19:30:00,
2013-04-19 15:35:00,51.4,28.9,28.70,SW,225,6.9,11.0,42,0.00,,,0.08,WUHU216WMR100,2013-04-19 19:35:00,
2013-04-19 15:40:00,51.8,28.7,28.70,West,265,6.7,10.5,41,0.00,,,0.08,WUHU216WMR100,2013-04-19 19:40:00,
2013-04-19 15:45:00,50.9,27.9,28.70,WSW,247,6.9,10.5,41,0.00,,,0.08,WUHU216WMR100,2013-04-19 19:45:00,
2013-04-19 15:50:00,50.2,29.0,28.70,WNW,287,4.3,10.3,44,0.00,,,0.08,WUHU216WMR100,2013-04-19 19:50:00,
2013-04-19 15:55:00,49.8,30.3,28.70,NNW,337,5.8,11.0,47,0.00,,,0.08,WUHU216WMR100,2013-04-19 19:55:00,
2013-04-19 16:00:00,50.0,31.0,28.70,NW,315,5.4,11.0,48,0.00,,,0.08,WUHU216WMR100,2013-04-19 20:00:00,
2013-04-19 16:05:00,51.1,31.5,28.73,West,281,4.1,8.7,47,0.00,,,0.08,WUHU216WMR100,2013-04-19 20:05:00,
2013-04-19 16:10:00,51.3,31.7,28.73,South,180,4.7,10.3,47,0.00,,,0.08,WUHU216WMR100,2013-04-19 20:10:00,
2013-04-19 16:15:00,50.4,29.7,28.73,WSW,247,7.4,13.2,45,0.00,,,0.08,WUHU216WMR100,2013-04-19 20:15:00,
2013-04-19 16:20:00,51.4,31.8,28.73,WNW,292,3.8,13.2,47,0.00,,,0.08,WUHU216WMR100,2013-04-19 20:20:00,
2013-04-19 16:24:00,51.4,27.7,28.73,SW,230,5.8,15.4,40,0.00,,,0.08,WUHU216WMR100,2013-04-19 20:24:00,
2013-04-19 16:30:00,52.0,28.9,28.73,SSW,202,6.7,15.4,41,0.00,,,0.08,WUHU216WMR100,2013-04-19 20:30:00,
2013-04-19 16:35:00,51.8,27.4,28.73,SSW,202,8.1,11.0,39,0.00,,,0.08,WUHU216WMR100,2013-04-19 20:35:00,
2013-04-19 16:40:00,51.6,27.2,28.73,WSW,239,6.4,16.1,39,0.00,,,0.08,WUHU216WMR100,2013-04-19 20:40:00,
2013-04-19 16:45:00,50.9,27.2,28.73,WNW,292,7.4,16.1,40,0.00,,,0.08,WUHU216WMR100,2013-04-19 20:45:00,
2013-04-19 16:50:00,50.5,27.5,28.73,WSW,247,6.0,11.0,41,0.00,,,0.08,WUHU216WMR100,2013-04-19 20:50:00,
2013-04-19 16:55:00,49.8,26.3,28.73,WSW,247,8.9,12.3,40,0.00,,,0.08,WUHU216WMR100,2013-04-19 20:55:00,
2013-04-19 17:00:00,49.8,28.1,28.73,West,270,9.2,13.2,43,0.00,,,0.08,WUHU216WMR100,2013-04-19 21:00:00,
2013-04-19 17:05:00,50.7,30.0,28.73,West,262,4.1,13.2,45,0.00,,,0.08,WUHU216WMR100,2013-04-19 21:05:00,
2013-04-19 17:09:00,51.1,28.6,28.73,WNW,292,7.4,12.8,42,0.00,,,0.08,WUHU216WMR100,2013-04-19 21:09:00,
2013-04-19 17:10:00,51.1,28.6,28.73,WNW,292,7.4,12.8,42,0.00,,,0.08,WUHU216WMR100,2013-04-19 21:10:00,
2013-04-19 17:11:00,50.7,28.9,28.73,WNW,296,5.8,11.0,43,0.00,,,0.08,WUHU216WMR100,2013-04-19 21:11:00,
2013-04-19 17:12:00,50.5,28.7,28.73,WSW,247,6.5,12.8,43,0.00,,,0.08,WUHU216WMR100,2013-04-19 21:12:00,
2013-04-19 17:13:00,50.4,29.2,28.73,WSW,247,6.9,12.8,44,0.00,,,0.08,WUHU216WMR100,2013-04-19 21:13:00,
2013-04-19 17:14:00,50.4,28.6,28.73,WSW,244,6.4,12.8,43,0.00,,,0.08,WUHU216WMR100,2013-04-19 21:14:00,
2013-04-19 17:15:00,50.4,29.2,28.73,WSW,257,5.5,12.8,44,0.00,,,0.08,WUHU216WMR100,2013-04-19 21:15:00,
2013-04-19 17:16:00,50.2,29.0,28.73,SSW,202,4.9,12.8,44,0.00,,,0.08,WUHU216WMR100,2013-04-19 21:16:00,
2013-04-19 17:17:00,50.4,29.7,28.76,West,270,4.4,12.8,45,0.00,,,0.08,WUHU216WMR100,2013-04-19 21:17:00,
2013-04-19 17:18:00,50.5,29.8,28.76,WSW,246,3.6,12.8,45,0.00,,,0.08,WUHU216WMR100,2013-04-19 21:18:00,
2013-04-19 17:19:00,50.2,29.0,28.76,SSW,202,3.4,12.8,44,0.00,,,0.08,WUHU216WMR100,2013-04-19 21:19:00,
2013-04-19 17:20:00,50.0,28.2,28.76,WSW,247,7.8,12.8,43,0.00,,,0.08,WUHU216WMR100,2013-04-19 21:20:00,
2013-04-19 17:21:00,49.8,28.6,28.76,West,270,7.8,12.8,44,0.00,,,0.08,WUHU216WMR100,2013-04-19 21:21:00,
2013-04-19 17:22:00,49.8,29.2,28.76,West,279,6.2,11.0,45,0.00,,,0.08,WUHU216WMR100,2013-04-19 21:22:00,
2013-04-19 17:23:00,49.6,29.0,28.76,SSW,202,6.5,11.0,45,0.00,,,0.08,WUHU216WMR100,2013-04-19 21:23:00,
2013-04-19 17:24:00,49.6,28.4,28.76,West,266,5.9,11.0,44,0.00,,,0.08,WUHU216WMR100,2013-04-19 21:24:00,
2013-04-19 17:25:00,49.5,28.4,28.76,WSW,247,7.4,12.3,44,0.00,,,0.08,WUHU216WMR100,2013-04-19 21:25:00,
2013-04-19 17:26:00,49.3,28.7,28.76,West,269,6.3,12.3,45,0.00,,,0.08,WUHU216WMR100,2013-04-19 21:26:00,
2013-04-19 17:27:00,49.5,28.9,28.76,West,266,5.9,12.3,45,0.00,,,0.08,WUHU216WMR100,2013-04-19 21:27:00,
2013-04-19 17:28:00,49.3,28.7,28.76,West,274,4.8,12.3,45,0.00,,,0.08,WUHU216WMR100,2013-04-19 21:28:00,
2013-04-19 17:29:00,49.3,28.7,28.76,NW,315,5.6,12.3,45,0.00,,,0.08,WUHU216WMR100,2013-04-19 21:29:00,
2013-04-19 17:30:00,49.3,29.3,28.76,West,259,4.6,12.3,46,0.00,,,0.08,WUHU216WMR100,2013-04-19 21:30:00,
2013-04-19 17:31:00,49.3,29.8,28.76,WSW,247,3.8,12.3,47,0.00,,,0.08,WUHU216WMR100,2013-04-19 21:31:00,
2013-04-19 17:32:00,49.1,29.1,28.76,West,273,3.4,12.3,46,0.00,,,0.08,WUHU216WMR100,2013-04-19 21:32:00,
2013-04-19 17:33:00,49.1,29.1,28.76,WNW,292,4.3,12.3,46,0.00,,,0.08,WUHU216WMR100,2013-04-19 21:33:00,
2013-04-19 17:34:00,48.9,28.9,28.76,WSW,247,4.5,12.3,46,0.00,,,0.08,WUHU216WMR100,2013-04-19 21:34:00,
2013-04-19 17:35:00,48.9,28.9,28.76,WSW,244,4.0,8.1,46,0.00,,,0.08,WUHU216WMR100,2013-04-19 21:35:00,
2013-04-19 17:36:00,48.9,29.5,28.76,WSW,251,3.3,8.1,47,0.00,,,0.08,WUHU216WMR100,2013-04-19 21:36:00,
2013-04-19 17:37:00,48.7,28.7,28.76,SW,225,4.3,7.6,46,0.00,,,0.08,WUHU216WMR100,2013-04-19 21:37:00,
2013-04-19 17:38:00,48.7,28.7,28.76,West,270,4.3,7.6,46,0.00,,,0.08,WUHU216WMR100,2013-04-19 21:38:00,
2013-04-19 17:39:00,48.7,29.3,28.76,WSW,258,3.7,7.2,47,0.00,,,0.08,WUHU216WMR100,2013-04-19 21:39:00,
2013-04-19 17:40:00,48.7,29.3,28.76,West,272,3.0,7.2,47,0.00,,,0.08,WUHU216WMR100,2013-04-19 21:40:00,
2013-04-19 17:41:00,48.6,29.2,28.76,WSW,247,4.0,7.2,47,0.04,,,0.12,WUHU216WMR100,2013-04-19 21:41:00,
2013-04-19 17:42:00,48.6,29.2,28.76,WNW,292,6.5,8.5,47,0.04,,,0.12,WUHU216WMR100,2013-04-19 21:42:00,
2013-04-19 17:43:00,48.4,29.0,28.76,West,276,5.4,9.8,47,0.04,,,0.12,WUHU216WMR100,2013-04-19 21:43:00,
2013-04-19 17:44:00,48.2,28.3,28.76,WSW,247,6.9,9.8,46,0.04,,,0.12,WUHU216WMR100,2013-04-19 21:44:00,
2013-04-19 17:45:00,48.2,28.8,28.76,West,261,6.2,9.8,47,0.04,,,0.12,WUHU216WMR100,2013-04-19 21:45:00,
2013-04-19 17:46:00,48.0,28.6,28.76,West,266,5.5,9.8,47,0.04,,,0.12,WUHU216WMR100,2013-04-19 21:46:00,
2013-04-19 17:47:00,48.0,28.6,28.79,WSW,250,4.7,9.8,47,0.04,,,0.12,WUHU216WMR100,2013-04-19 21:47:00,
2013-04-19 17:48:00,47.8,27.4,28.79,WSW,256,4.3,12.5,45,0.04,,,0.12,WUHU216WMR100,2013-04-19 21:48:00,
2013-04-19 17:49:00,47.8,27.4,28.79,WNW,292,10.3,16.8,45,0.04,,,0.12,WUHU216WMR100,2013-04-19 21:49:00,
2013-04-19 17:50:00,48.0,28.1,28.79,WSW,258,7.7,16.8,46,0.04,,,0.12,WUHU216WMR100,2013-04-19 21:50:00,
2013-04-19 17:51:00,48.0,28.6,28.79,SW,235,5.3,16.8,47,0.04,,,0.12,WUHU216WMR100,2013-04-19 21:51:00,
2013-04-19 17:52:00,48.0,27.5,28.79,NNW,337,6.7,16.8,45,0.04,,,0.12,WUHU216WMR100,2013-04-19 21:52:00,
2013-04-19 17:53:00,48.2,27.7,28.79,WSW,247,6.7,16.8,45,0.04,,,0.12,WUHU216WMR100,2013-04-19 21:53:00,
2013-04-19 17:54:00,48.2,28.3,28.79,WSW,252,5.5,16.8,46,0.04,,,0.12,WUHU216WMR100,2013-04-19 21:54:00,
2013-04-19 17:55:00,48.4,28.5,28.79,West,270,4.5,16.8,46,0.04,,,0.12,WUHU216WMR100,2013-04-19 21:55:00,
2013-04-19 17:56:00,48.2,27.2,28.79,West,270,6.3,16.8,44,0.04,,,0.12,WUHU216WMR100,2013-04-19 21:56:00,
2013-04-19 17:57:00,48.2,27.7,28.79,WSW,249,5.5,16.8,45,0.04,,,0.12,WUHU216WMR100,2013-04-19 21:57:00,
2013-04-19 17:58:00,48.2,27.7,28.79,West,265,4.4,16.8,45,0.04,,,0.12,WUHU216WMR100,2013-04-19 21:58:00,
2013-04-19 17:59:00,48.2,28.3,28.79,West,276,3.5,10.7,46,0.04,,,0.12,WUHU216WMR100,2013-04-19 21:59:00,
2013-04-19 18:00:00,48.0,27.5,28.79,South,180,5.6,10.7,45,0.04,,,0.12,WUHU216WMR100,2013-04-19 22:00:00,
2013-04-19 18:01:00,48.0,27.5,28.79,WNW,288,5.0,10.7,45,0.04,,,0.12,WUHU216WMR100,2013-04-19 22:01:00,
2013-04-19 18:02:00,47.8,27.9,28.79,West,279,4.0,10.7,46,0.04,,,0.12,WUHU216WMR100,2013-04-19 22:02:00,
2013-04-19 18:03:00,47.7,27.3,28.76,WSW,247,6.9,10.7,45,0.04,,,0.12,WUHU216WMR100,2013-04-19 22:03:00,
2013-04-19 18:04:00,47.5,27.6,28.76,WSW,247,6.9,10.7,46,0.04,,,0.12,WUHU216WMR100,2013-04-19 22:04:00,
2013-04-19 18:05:00,47.5,27.6,28.76,WSW,247,6.9,9.4,46,0.04,,,0.12,WUHU216WMR100,2013-04-19 22:05:00,
2013-04-19 18:06:00,47.5,28.2,28.76,WSW,247,6.9,9.4,47,0.04,,,0.12,WUHU216WMR100,2013-04-19 22:06:00,
2013-04-19 18:07:00,47.5,28.2,28.76,WSW,247,6.9,9.4,47,0.04,,,0.12,WUHU216WMR100,2013-04-19 22:07:00,
2013-04-19 18:08:00,47.5,28.2,28.76,North,0,0.0,0.0,47,0.04,,,0.12,WUHU216WMR100,2013-04-19 22:08:00,
2013-04-19 18:09:00,47.5,28.2,28.76,South,180,3.8,9.4,47,0.04,,,0.12,WUHU216WMR100,2013-04-19 22:09:00,
2013-04-19 18:10:00,47.3,28.0,28.76,NNW,337,2.9,9.4,47,0.04,,,0.12,WUHU216WMR100,2013-04-19 22:10:00,
2013-04-19 18:11:00,47.3,28.0,28.76,NW,315,8.5,10.3,47,0.04,,,0.12,WUHU216WMR100,2013-04-19 22:11:00,
2013-04-19 18:12:00,47.3,28.0,28.76,WNW,292,8.1,10.3,47,0.04,,,0.12,WUHU216WMR100,2013-04-19 22:12:00,
2013-04-19 18:13:00,47.1,27.8,28.76,WNW,284,6.9,10.3,47,0.04,,,0.12,WUHU216WMR100,2013-04-19 22:13:00,
2013-04-19 18:14:00,47.1,27.8,28.76,WSW,247,6.7,10.3,47,0.04,,,0.12,WUHU216WMR100,2013-04-19 22:14:00,
2013-04-19 18:15:00,47.1,27.8,28.76,WSW,245,6.2,10.3,47,0.04,,,0.12,WUHU216WMR100,2013-04-19 22:15:00,
2013-04-19 18:16:00,46.9,27.6,28.76,WSW,247,6.0,10.3,47,0.04,,,0.12,WUHU216WMR100,2013-04-19 22:16:00,
2013-04-19 18:17:00,46.9,27.6,28.79,WSW,247,5.6,10.3,47,0.04,,,0.12,WUHU216WMR100,2013-04-19 22:17:00,
2013-04-19 18:18:00,47.1,27.8,28.79,West,270,6.3,10.3,47,0.04,,,0.12,WUHU216WMR100,2013-04-19 22:18:00,
2013-04-19 18:19:00,47.1,27.8,28.79,WSW,254,5.2,10.3,47,0.04,,,0.12,WUHU216WMR100,2013-04-19 22:19:00,
2013-04-19 18:20:00,46.9,27.6,28.79,SSW,202,6.5,10.3,47,0.04,,,0.12,WUHU216WMR100,2013-04-19 22:20:00,
2013-04-19 18:21:00,46.9,27.6,28.79,West,268,5.4,10.3,47,0.04,,,0.12,WUHU216WMR100,2013-04-19 22:21:00,
2013-04-19 18:22:00,46.9,27.6,28.79,SSW,202,5.8,10.1,47,0.04,,,0.12,WUHU216WMR100,2013-04-19 22:22:00,
2013-04-19 18:23:00,46.9,27.6,28.79,WSW,239,5.6,10.1,47,0.04,,,0.12,WUHU216WMR100,2013-04-19 22:23:00,
2013-04-19 18:24:00,46.9,27.6,28.79,SSW,202,5.8,10.1,47,0.04,,,0.12,WUHU216WMR100,2013-04-19 22:24:00,
2013-04-19 18:25:00,46.9,27.6,28.79,WSW,258,5.2,10.1,47,0.04,,,0.12,WUHU216WMR100,2013-04-19 22:25:00,
2013-04-19 18:26:00,46.8,27.0,28.79,East,90,6.3,10.1,46,0.04,,,0.12,WUHU216WMR100,2013-04-19 22:26:00,
2013-04-19 18:27:00,46.8,26.5,28.79,NE,44,5.7,10.1,45,0.04,,,0.12,WUHU216WMR100,2013-04-19 22:27:00,
2013-04-19 18:28:00,46.8,26.5,28.79,West,270,6.5,10.1,45,0.04,,,0.12,WUHU216WMR100,2013-04-19 22:28:00,
2013-04-19 18:29:00,46.6,26.3,28.79,WSW,247,6.7,10.1,45,0.04,,,0.12,WUHU216WMR100,2013-04-19 22:29:00,
2013-04-19 18:30:00,46.6,26.8,28.79,WSW,255,6.1,10.5,46,0.04,,,0.12,WUHU216WMR100,2013-04-19 22:30:00,
2013-04-19 18:31:00,46.6,26.8,28.79,WSW,255,5.5,10.5,46,0.04,,,0.12,WUHU216WMR100,2013-04-19 22:31:00,
2013-04-19 18:32:00,46.6,27.4,28.79,WSW,247,5.8,10.5,47,0.04,,,0.12,WUHU216WMR100,2013-04-19 22:32:00,
2013-04-19 18:33:00,46.6,27.4,28.79,West,264,5.0,10.5,47,0.00,,,0.12,WUHU216WMR100,2013-04-19 22:33:00,
2013-04-19 18:34:00,46.6,27.4,28.79,West,277,4.6,10.5,47,0.00,,,0.12,WUHU216WMR100,2013-04-19 22:34:00,
2013-04-19 18:35:00,46.6,27.4,28.79,WNW,292,4.5,10.5,47,0.00,,,0.12,WUHU216WMR100,2013-04-19 22:35:00,
2013-04-19 18:36:00,46.6,27.4,28.79,WSW,247,4.5,10.5,47,0.00,,,0.12,WUHU216WMR100,2013-04-19 22:36:00,
2013-04-19 18:37:00,46.6,27.4,28.79,WSW,241,3.9,10.5,47,0.00,,,0.12,WUHU216WMR100,2013-04-19 22:37:00,
2013-04-19 18:38:00,46.8,27.5,28.79,WSW,255,3.3,10.5,47,0.00,,,0.12,WUHU216WMR100,2013-04-19 22:38:00,
2013-04-19 18:39:00,46.8,28.1,28.79,WSW,247,3.6,10.5,48,0.00,,,0.12,WUHU216WMR100,2013-04-19 22:39:00,
2013-04-19 18:40:00,46.6,27.4,28.79,West,270,6.0,9.8,47,0.00,,,0.12,WUHU216WMR100,2013-04-19 22:40:00,
2013-04-19 18:41:00,46.6,27.4,28.79,WSW,252,5.4,9.8,47,0.00,,,0.12,WUHU216WMR100,2013-04-19 22:41:00,
2013-04-19 18:42:00,46.6,27.4,28.79,WSW,247,5.4,9.8,47,0.00,,,0.12,WUHU216WMR100,2013-04-19 22:42:00,
2013-04-19 18:43:00,46.6,27.4,28.79,WSW,253,4.7,9.8,47,0.00,,,0.12,WUHU216WMR100,2013-04-19 22:43:00,
2013-04-19 18:44:00,46.6,27.4,28.79,SW,235,3.7,9.8,47,0.00,,,0.12,WUHU216WMR100,2013-04-19 22:44:00,
2013-04-19 18:45:00,46.6,27.4,28.79,NW,315,4.7,9.8,47,0.00,,,0.12,WUHU216WMR100,2013-04-19 22:45:00,
2013-04-19 18:46:00,46.6,27.4,28.79,WSW,255,4.0,9.8,47,0.00,,,0.12,WUHU216WMR100,2013-04-19 22:46:00,
2013-04-19 18:47:00,46.4,27.2,28.79,NNW,337,4.0,9.8,47,0.00,,,0.12,WUHU216WMR100,2013-04-19 22:47:00,
2013-04-19 18:48:00,46.4,27.2,28.79,WSW,257,3.6,9.8,47,0.00,,,0.12,WUHU216WMR100,2013-04-19 22:48:00,
2013-04-19 18:49:00,46.4,27.2,28.79,WSW,247,3.8,7.6,47,0.00,,,0.12,WUHU216WMR100,2013-04-19 22:49:00,
2013-04-19 18:50:00,46.4,27.2,28.79,West,270,4.3,7.6,47,0.00,,,0.12,WUHU216WMR100,2013-04-19 22:50:00,
2013-04-19 18:51:00,46.2,27.5,28.79,West,270,4.7,8.7,48,0.00,,,0.12,WUHU216WMR100,2013-04-19 22:51:00,
2013-04-19 18:52:00,46.2,27.5,28.79,NNW,337,4.9,8.7,48,0.00,,,0.12,WUHU216WMR100,2013-04-19 22:52:00,
2013-04-19 18:53:00,46.0,27.3,28.79,WNW,292,5.4,8.7,48,0.00,,,0.12,WUHU216WMR100,2013-04-19 22:53:00,
2013-04-19 18:54:00,46.0,27.3,28.79,WNW,295,5.1,8.7,48,0.00,,,0.12,WUHU216WMR100,2013-04-19 22:54:00,
2013-04-19 18:55:00,46.0,27.3,28.79,West,260,4.3,8.7,48,0.00,,,0.12,WUHU216WMR100,2013-04-19 22:55:00,
2013-04-19 18:56:00,46.0,27.3,28.79,WSW,247,4.0,8.7,48,0.00,,,0.12,WUHU216WMR100,2013-04-19 22:56:00,
2013-04-19 18:57:00,45.9,27.2,28.79,West,281,3.6,10.5,48,0.00,,,0.12,WUHU216WMR100,2013-04-19 22:57:00,
2013-04-19 18:58:00,45.9,27.8,28.79,West,270,6.0,10.5,49,0.00,,,0.12,WUHU216WMR100,2013-04-19 22:58:00,
2013-04-19 18:59:00,45.7,27.1,28.79,WNW,282,5.3,10.5,48,0.00,,,0.12,WUHU216WMR100,2013-04-19 22:59:00,
2013-04-19 19:00:00,45.7,27.1,28.79,WNW,293,4.9,10.5,48,0.00,,,0.12,WUHU216WMR100,2013-04-19 23:00:00,
2013-04-19 19:01:00,45.5,26.9,28.79,West,270,5.8,10.5,48,0.00,,,0.12,WUHU216WMR100,2013-04-19 23:01:00,
2013-04-19 19:02:00,45.5,26.9,28.79,WNW,284,5.8,10.5,48,0.00,,,0.12,WUHU216WMR100,2013-04-19 23:02:00,
2013-04-19 19:03:00,45.5,26.9,28.79,West,276,5.7,10.5,48,0.00,,,0.12,WUHU216WMR100,2013-04-19 23:03:00,
2013-04-19 19:04:00,45.5,26.9,28.79,West,267,4.7,10.5,48,0.00,,,0.12,WUHU216WMR100,2013-04-19 23:04:00,
2013-04-19 19:05:00,45.5,26.9,28.79,WSW,247,3.8,10.5,48,0.00,,,0.12,WUHU216WMR100,2013-04-19 23:05:00,
2013-04-19 19:06:00,45.3,26.7,28.79,WSW,247,4.9,10.5,48,0.00,,,0.12,WUHU216WMR100,2013-04-19 23:06:00,
2013-04-19 19:07:00,45.3,26.7,28.79,WSW,247,7.2,10.5,48,0.00,,,0.12,WUHU216WMR100,2013-04-19 23:07:00,
2013-04-19 19:08:00,45.3,26.7,28.79,WNW,300,6.0,8.7,48,0.00,,,0.12,WUHU216WMR100,2013-04-19 23:08:00,
2013-04-19 19:09:00,45.3,26.7,28.79,WNW,292,5.4,8.7,48,0.00,,,0.12,WUHU216WMR100,2013-04-19 23:09:00,
2013-04-19 19:10:00,45.3,26.7,28.79,West,267,4.8,8.7,48,0.00,,,0.12,WUHU216WMR100,2013-04-19 23:10:00,
2013-04-19 19:11:00,45.3,26.7,28.79,West,271,4.0,8.5,48,0.00,,,0.12,WUHU216WMR100,2013-04-19 23:11:00,
2013-04-19 19:12:00,45.3,27.2,28.79,West,272,3.5,7.6,49,0.00,,,0.12,WUHU216WMR100,2013-04-19 23:12:00,
2013-04-19 19:13:00,45.3,26.7,28.79,SSE,157,3.8,7.6,48,0.00,,,0.12,WUHU216WMR100,2013-04-19 23:13:00,
2013-04-19 19:14:00,45.3,26.7,28.79,WSW,247,4.5,7.6,48,0.00,,,0.12,WUHU216WMR100,2013-04-19 23:14:00,
2013-04-19 19:15:00,45.3,26.7,28.79,West,266,3.9,7.6,48,0.00,,,0.12,WUHU216WMR100,2013-04-19 23:15:00,
2013-04-19 19:16:00,45.3,26.7,28.79,West,270,3.6,7.6,48,0.00,,,0.12,WUHU216WMR100,2013-04-19 23:16:00,
2013-04-19 19:17:00,45.3,26.7,28.82,WSW,247,3.6,7.6,48,0.00,,,0.12,WUHU216WMR100,2013-04-19 23:17:00,
2013-04-19 19:18:00,45.3,26.7,28.82,WSW,250,4.6,7.6,48,0.00,,,0.12,WUHU216WMR100,2013-04-19 23:18:00,
2013-04-19 19:19:00,45.1,26.5,28.82,WSW,255,4.6,7.6,48,0.00,,,0.12,WUHU216WMR100,2013-04-19 23:19:00,
2013-04-19 19:20:00,45.3,26.7,28.82,WNW,292,4.5,7.6,48,0.00,,,0.12,WUHU216WMR100,2013-04-19 23:20:00,
2013-04-19 19:21:00,45.3,26.7,28.82,NNW,337,4.7,7.6,48,0.00,,,0.12,WUHU216WMR100,2013-04-19 23:21:00,
2013-04-19 19:22:00,45.3,26.7,28.82,West,268,4.4,7.6,48,0.00,,,0.12,WUHU216WMR100,2013-04-19 23:22:00,
2013-04-19 19:23:00,45.3,26.7,28.82,WSW,238,3.6,7.6,48,0.00,,,0.12,WUHU216WMR100,2013-04-19 23:23:00,
2013-04-19 19:24:00,45.3,26.7,28.82,West,276,3.2,7.6,48,0.00,,,0.12,WUHU216WMR100,2013-04-19 23:24:00,
2013-04-19 19:25:00,45.3,27.2,28.82,WNW,293,2.6,7.6,49,0.00,,,0.12,WUHU216WMR100,2013-04-19 23:25:00,
2013-04-19 19:26:00,45.3,27.2,28.82,SSW,202,2.2,7.8,49,0.00,,,0.12,WUHU216WMR100,2013-04-19 23:26:00,
2013-04-19 19:27:00,45.3,26.7,28.82,WSW,247,4.9,10.5,48,0.00,,,0.12,WUHU216WMR100,2013-04-19 23:27:00,
2013-04-19 19:28:00,45.3,27.2,28.82,WNW,292,4.7,10.5,49,0.00,,,0.12,WUHU216WMR100,2013-04-19 23:28:00,
2013-04-19 19:29:00,45.3,27.2,28.82,West,263,4.0,10.5,49,0.00,,,0.12,WUHU216WMR100,2013-04-19 23:29:00,
2013-04-19 19:30:00,45.3,27.2,28.82,WSW,247,3.6,10.5,49,0.00,,,0.12,WUHU216WMR100,2013-04-19 23:30:00,
2013-04-19 19:31:00,45.3,27.2,28.82,ESE,112,4.9,10.5,49,0.00,,,0.12,WUHU216WMR100,2013-04-19 23:31:00,
2013-04-19 19:32:00,45.3,27.2,28.82,West,274,3.9,10.5,49,0.00,,,0.12,WUHU216WMR100,2013-04-19 23:32:00,
2013-04-19 19:33:00,45.3,27.2,28.82,WSW,247,4.0,10.5,49,0.00,,,0.12,WUHU216WMR100,2013-04-19 23:33:00,
2013-04-19 19:34:00,45.1,26.5,28.82,SW,225,6.3,10.5,48,0.00,,,0.12,WUHU216WMR100,2013-04-19 23:34:00,
2013-04-19 19:35:00,45.1,26.5,28.82,West,264,5.1,10.5,48,0.00,,,0.12,WUHU216WMR100,2013-04-19 23:35:00,
2013-04-19 19:36:00,45.1,27.0,28.82,WSW,247,4.0,10.5,49,0.00,,,0.12,WUHU216WMR100,2013-04-19 23:36:00,
2013-04-19 19:37:00,45.1,26.5,28.82,WNW,292,3.9,8.1,48,0.00,,,0.12,WUHU216WMR100,2013-04-19 23:37:00,
2013-04-19 19:38:00,45.1,26.5,28.82,WNW,292,4.5,8.1,48,0.00,,,0.12,WUHU216WMR100,2013-04-19 23:38:00,
2013-04-19 19:39:00,45.1,26.5,28.82,West,267,4.1,8.1,48,0.00,,,0.12,WUHU216WMR100,2013-04-19 23:39:00,
2013-04-19 19:40:00,45.1,26.5,28.82,WSW,247,4.0,8.1,48,0.00,,,0.12,WUHU216WMR100,2013-04-19 23:40:00,
2013-04-19 19:41:00,45.1,26.5,28.82,West,270,4.3,8.1,48,0.00,,,0.12,WUHU216WMR100,2013-04-19 23:41:00,
2013-04-19 19:42:00,45.1,26.5,28.82,WNW,286,3.7,8.1,48,0.00,,,0.12,WUHU216WMR100,2013-04-19 23:42:00,
2013-04-19 19:43:00,45.1,26.5,28.82,WSW,247,4.9,7.6,48,0.00,,,0.12,WUHU216WMR100,2013-04-19 23:43:00,
2013-04-19 19:44:00,45.1,26.5,28.82,WSW,252,4.4,6.7,48,0.00,,,0.12,WUHU216WMR100,2013-04-19 23:44:00,
2013-04-19 19:45:00,45.1,26.5,28.82,WSW,256,3.4,6.7,48,0.00,,,0.12,WUHU216WMR100,2013-04-19 23:45:00,
2013-04-19 19:46:00,45.1,26.5,28.82,West,271,2.9,6.7,48,0.00,,,0.12,WUHU216WMR100,2013-04-19 23:46:00,
2013-04-19 19:47:00,45.1,27.0,28.79,WSW,243,2.4,6.7,49,0.00,,,0.12,WUHU216WMR100,2013-04-19 23:47:00,
2013-04-19 19:48:00,45.1,27.0,28.79,WSW,247,2.9,6.5,49,0.00,,,0.12,WUHU216WMR100,2013-04-19 23:48:00,
2013-04-19 19:49:00,45.1,27.0,28.79,North,0,3.1,6.5,49,0.00,,,0.12,WUHU216WMR100,2013-04-19 23:49:00,
2013-04-19 19:50:00,45.1,27.0,28.79,WSW,247,3.4,5.8,49,0.00,,,0.12,WUHU216WMR100,2013-04-19 23:50:00,
2013-04-19 19:51:00,45.1,27.0,28.79,WNW,292,3.6,6.3,49,0.00,,,0.12,WUHU216WMR100,2013-04-19 23:51:00,
2013-04-19 19:52:00,45.1,27.0,28.79,SSW,202,4.7,6.3,49,0.00,,,0.12,WUHU216WMR100,2013-04-19 23:52:00,
2013-04-19 19:53:00,45.0,26.4,28.79,SW,221,3.9,6.3,48,0.00,,,0.12,WUHU216WMR100,2013-04-19 23:53:00,
2013-04-19 19:54:00,45.0,26.4,28.79,WSW,247,4.7,6.3,48,0.00,,,0.12,WUHU216WMR100,2013-04-19 23:54:00,
2013-04-19 19:55:00,45.0,26.4,28.79,West,259,4.0,6.5,48,0.00,,,0.12,WUHU216WMR100,2013-04-19 23:55:00,
2013-04-19 19:56:00,45.0,26.4,28.79,ENE,67,4.3,6.5,48,0.00,,,0.12,WUHU216WMR100,2013-04-19 23:56:00,
2013-04-19 19:57:00,45.0,26.4,28.79,SW,228,4.1,6.5,48,0.00,,,0.12,WUHU216WMR100,2013-04-19 23:57:00,
2013-04-19 19:58:00,45.0,26.9,28.79,SW,235,3.7,6.5,49,0.00,,,0.12,WUHU216WMR100,2013-04-19 23:58:00,
2013-04-19 19:59:00,45.0,26.9,28.79,West,271,3.6,6.5,49,0.00,,,0.12,WUHU216WMR100,2013-04-19 23:59:00,
2013-04-19 20:00:00,45.0,26.9,28.79,West,263,3.3,6.5,49,0.00,,,0.12,WUHU216WMR100,2013-04-20 00:00:00,
2013-04-19 20:01:00,45.0,26.9,28.79,NW,315,3.8,6.5,49,0.00,,,0.12,WUHU216WMR100,2013-04-20 00:01:00,
2013-04-19 20:02:00,44.8,26.7,28.82,WSW,247,4.3,6.5,49,0.00,,,0.12,WUHU216WMR100,2013-04-20 00:02:00,
2013-04-19 20:03:00,44.8,26.7,28.82,West,259,4.1,6.5,49,0.00,,,0.12,WUHU216WMR100,2013-04-20 00:03:00,
2013-04-19 20:04:00,44.8,26.7,28.82,WSW,247,3.7,6.5,49,0.00,,,0.12,WUHU216WMR100,2013-04-20 00:04:00,
2013-04-19 20:05:00,44.8,26.7,28.82,SW,225,3.3,5.6,49,0.00,,,0.12,WUHU216WMR100,2013-04-20 00:05:00,
2013-04-19 20:06:00,44.8,26.7,28.82,WSW,255,3.0,5.6,49,0.00,,,0.12,WUHU216WMR100,2013-04-20 00:06:00,
2013-04-19 20:07:00,44.8,26.7,28.82,West,270,3.4,5.6,49,0.00,,,0.12,WUHU216WMR100,2013-04-20 00:07:00,
2013-04-19 20:08:00,44.8,26.7,28.82,West,270,3.4,6.0,49,0.00,,,0.12,WUHU216WMR100,2013-04-20 00:08:00,
2013-04-19 20:09:00,44.8,26.7,28.82,WNW,292,4.5,6.0,49,0.00,,,0.12,WUHU216WMR100,2013-04-20 00:09:00,
2013-04-19 20:10:00,44.8,26.7,28.82,West,270,4.0,6.0,49,0.00,,,0.12,WUHU216WMR100,2013-04-20 00:10:00,
2013-04-19 20:11:00,44.8,26.7,28.82,WSW,247,3.6,6.0,49,0.00,,,0.12,WUHU216WMR100,2013-04-20 00:11:00,
2013-04-19 20:12:00,44.8,27.2,28.82,West,273,3.4,6.0,50,0.00,,,0.12,WUHU216WMR100,2013-04-20 00:12:00,
2013-04-19 20:13:00,44.8,27.2,28.82,WNW,287,3.0,6.0,50,0.00,,,0.12,WUHU216WMR100,2013-04-20 00:13:00,
2013-04-19 20:14:00,44.8,27.2,28.82,South,180,3.6,6.0,50,0.00,,,0.12,WUHU216WMR100,2013-04-20 00:14:00,
2013-04-19 20:15:00,44.8,27.2,28.82,NW,324,3.3,6.0,50,0.00,,,0.12,WUHU216WMR100,2013-04-20 00:15:00,
2013-04-19 20:16:00,44.8,27.2,28.82,WNW,296,2.5,6.0,50,0.00,,,0.12,WUHU216WMR100,2013-04-20 00:16:00,
2013-04-19 20:17:00,44.8,27.2,28.82,WSW,247,2.9,6.0,50,0.00,,,0.12,WUHU216WMR100,2013-04-20 00:17:00,
2013-04-19 20:18:00,44.8,27.2,28.82,North,0,2.7,5.6,50,0.00,,,0.12,WUHU216WMR100,2013-04-20 00:18:00,
2013-04-19 20:19:00,44.8,27.2,28.82,WNW,300,2.5,4.9,50,0.00,,,0.12,WUHU216WMR100,2013-04-20 00:19:00,
2013-04-19 20:20:00,44.8,27.2,28.82,WNW,292,2.5,8.1,50,0.00,,,0.12,WUHU216WMR100,2013-04-20 00:20:00,
2013-04-19 20:21:00,44.8,27.2,28.82,WNW,292,3.8,8.1,50,0.00,,,0.12,WUHU216WMR100,2013-04-20 00:21:00,
2013-04-19 20:22:00,44.8,27.2,28.82,WNW,292,3.8,8.1,50,0.00,,,0.12,WUHU216WMR100,2013-04-20 00:22:00,
2013-04-19 20:23:00,44.8,27.2,28.82,West,276,3.3,8.1,50,0.00,,,0.12,WUHU216WMR100,2013-04-20 00:23:00,
2013-04-19 20:24:00,44.8,27.2,28.82,West,274,2.8,8.1,50,0.00,,,0.12,WUHU216WMR100,2013-04-20 00:24:00,
2013-04-19 20:25:00,44.8,27.2,28.82,West,265,2.6,8.1,50,0.00,,,0.12,WUHU216WMR100,2013-04-20 00:25:00,
2013-04-19 20:26:00,44.8,27.2,28.82,SSW,202,2.9,8.1,50,0.00,,,0.12,WUHU216WMR100,2013-04-20 00:26:00,
2013-04-19 20:27:00,44.8,27.2,28.82,WNW,292,2.9,8.1,50,0.00,,,0.12,WUHU216WMR100,2013-04-20 00:27:00,
2013-04-19 20:28:00,44.8,27.2,28.82,WNW,292,4.5,8.1,50,0.00,,,0.12,WUHU216WMR100,2013-04-20 00:28:00,
2013-04-19 20:29:00,44.8,27.2,28.82,West,273,3.6,8.1,50,0.00,,,0.12,WUHU216WMR100,2013-04-20 00:29:00,
2013-04-19 20:30:00,44.8,27.2,28.82,West,261,2.7,6.5,50,0.00,,,0.12,WUHU216WMR100,2013-04-20 00:30:00,
2013-04-19 20:31:00,44.8,27.2,28.82,WSW,247,2.9,6.5,50,0.00,,,0.12,WUHU216WMR100,2013-04-20 00:31:00,
2013-04-19 20:32:00,44.8,27.2,28.82,West,270,3.6,6.5,50,0.00,,,0.12,WUHU216WMR100,2013-04-20 00:32:00,
2013-04-19 20:33:00,44.8,27.2,28.82,SSW,202,3.6,6.5,50,0.00,,,0.12,WUHU216WMR100,2013-04-20 00:33:00,
2013-04-19 20:34:00,44.8,27.2,28.82,WSW,240,3.2,6.5,50,0.00,,,0.12,WUHU216WMR100,2013-04-20 00:34:00,
2013-04-19 20:35:00,44.8,27.2,28.82,WSW,250,2.9,6.5,50,0.00,,,0.12,WUHU216WMR100,2013-04-20 00:35:00,
2013-04-19 20:36:00,44.8,27.2,28.82,WNW,292,3.8,7.4,50,0.00,,,0.12,WUHU216WMR100,2013-04-20 00:36:00,
2013-04-19 20:37:00,44.8,27.2,28.82,West,267,3.6,7.4,50,0.00,,,0.12,WUHU216WMR100,2013-04-20 00:37:00,
2013-04-19 20:38:00,44.6,27.1,28.82,WNW,282,3.0,7.4,50,0.00,,,0.12,WUHU216WMR100,2013-04-20 00:38:00,
2013-04-19 20:39:00,44.8,27.2,28.82,North,0,3.1,7.4,50,0.00,,,0.12,WUHU216WMR100,2013-04-20 00:39:00,
2013-04-19 20:40:00,44.8,27.2,28.82,WNW,303,2.9,7.4,50,0.00,,,0.12,WUHU216WMR100,2013-04-20 00:40:00,
2013-04-19 20:41:00,44.8,27.2,28.82,West,265,2.6,7.4,50,0.00,,,0.12,WUHU216WMR100,2013-04-20 00:41:00,
2013-04-19 20:42:00,44.8,27.2,28.82,WSW,247,2.7,7.4,50,0.00,,,0.12,WUHU216WMR100,2013-04-20 00:42:00,
2013-04-19 20:43:00,44.6,27.1,28.82,SW,222,2.6,7.4,50,0.00,,,0.12,WUHU216WMR100,2013-04-20 00:43:00,
2013-04-19 20:44:00,44.8,27.2,28.82,WSW,247,2.7,7.4,50,0.00,,,0.12,WUHU216WMR100,2013-04-20 00:44:00,
2013-04-19 20:45:00,44.6,27.1,28.82,WNW,292,4.0,7.4,50,0.00,,,0.12,WUHU216WMR100,2013-04-20 00:45:00,
2013-04-19 20:46:00,44.8,27.2,28.82,WSW,247,4.0,7.4,50,0.00,,,0.12,WUHU216WMR100,2013-04-20 00:46:00,
2013-04-19 20:47:00,44.6,26.6,28.82,WSW,247,6.3,10.5,49,0.00,,,0.12,WUHU216WMR100,2013-04-20 00:47:00,
2013-04-19 20:48:00,44.6,26.6,28.82,WSW,254,5.7,10.5,49,0.00,,,0.12,WUHU216WMR100,2013-04-20 00:48:00,
2013-04-19 20:49:00,44.8,26.7,28.82,WSW,249,4.5,10.5,49,0.00,,,0.12,WUHU216WMR100,2013-04-20 00:49:00,
2013-04-19 20:50:00,44.8,26.7,28.82,WSW,257,3.5,10.5,49,0.00,,,0.12,WUHU216WMR100,2013-04-20 00:50:00,
2013-04-19 20:51:00,44.8,26.7,28.82,SW,225,3.6,10.5,49,0.00,,,0.12,WUHU216WMR100,2013-04-20 00:51:00,
2013-04-19 20:52:00,44.8,26.7,28.82,West,270,4.3,10.5,49,0.00,,,0.12,WUHU216WMR100,2013-04-20 00:52:00,
2013-04-19 20:53:00,44.8,26.7,28.82,WSW,248,3.8,10.5,49,0.00,,,0.12,WUHU216WMR100,2013-04-20 00:53:00,
2013-04-19 20:54:00,44.6,26.6,28.82,WNW,292,3.8,10.5,49,0.00,,,0.12,WUHU216WMR100,2013-04-20 00:54:00,
2013-04-19 20:55:00,44.6,26.6,28.82,WNW,292,4.0,10.5,49,0.00,,,0.12,WUHU216WMR100,2013-04-20 00:55:00,
2013-04-19 20:56:00,44.6,26.0,28.82,WNW,292,7.2,10.5,48,0.00,,,0.12,WUHU216WMR100,2013-04-20 00:56:00,
2013-04-19 20:57:00,44.8,26.7,28.82,West,279,5.0,8.5,49,0.00,,,0.12,WUHU216WMR100,2013-04-20 00:57:00,
2013-04-19 20:58:00,44.6,26.6,28.82,WNW,283,3.8,8.5,49,0.00,,,0.12,WUHU216WMR100,2013-04-20 00:58:00,
2013-04-19 20:59:00,44.6,26.6,28.82,WSW,247,4.3,8.5,49,0.00,,,0.12,WUHU216WMR100,2013-04-20 00:59:00,
2013-04-19 21:00:00,44.6,26.6,28.82,WNW,292,4.3,8.5,49,0.00,,,0.12,WUHU216WMR100,2013-04-20 01:00:00,
2013-04-19 21:01:00,44.6,26.6,28.82,South,180,4.7,8.5,49,0.00,,,0.12,WUHU216WMR100,2013-04-20 01:01:00,
2013-04-19 21:02:00,44.6,26.6,28.82,WSW,246,4.4,8.5,49,0.00,,,0.12,WUHU216WMR100,2013-04-20 01:02:00,
2013-04-19 21:03:00,44.6,26.6,28.82,SW,234,3.7,8.5,49,0.00,,,0.12,WUHU216WMR100,2013-04-20 01:03:00,
2013-04-19 21:04:00,44.6,26.6,28.82,WNW,292,3.4,8.5,49,0.00,,,0.12,WUHU216WMR100,2013-04-20 01:04:00,
2013-04-19 21:05:00,44.6,26.0,28.82,NNW,337,3.8,7.6,48,0.00,,,0.12,WUHU216WMR100,2013-04-20 01:05:00,
2013-04-19 21:06:00,44.6,26.6,28.82,West,270,6.3,7.6,49,0.00,,,0.12,WUHU216WMR100,2013-04-20 01:06:00,
2013-04-19 21:07:00,44.6,26.6,28.82,West,278,4.7,7.6,49,0.00,,,0.12,WUHU216WMR100,2013-04-20 01:07:00,
2013-04-19 21:08:00,44.6,26.6,28.82,West,261,3.1,7.6,49,0.00,,,0.12,WUHU216WMR100,2013-04-20 01:08:00,
2013-04-19 21:09:00,44.6,26.6,28.82,West,274,3.5,7.6,49,0.00,,,0.12,WUHU216WMR100,2013-04-20 01:09:00,
2013-04-19 21:10:00,44.6,26.6,28.82,WNW,282,3.2,7.6,49,0.00,,,0.12,WUHU216WMR100,2013-04-20 01:10:00,
2013-04-19 21:11:00,44.6,26.6,28.82,WSW,247,3.1,8.7,49,0.00,,,0.12,WUHU216WMR100,2013-04-20 01:11:00,
2013-04-19 21:12:00,44.6,26.6,28.82,West,270,4.3,8.7,49,0.00,,,0.12,WUHU216WMR100,2013-04-20 01:12:00,
2013-04-19 21:13:00,44.6,26.6,28.82,WSW,247,4.7,8.7,49,0.00,,,0.12,WUHU216WMR100,2013-04-20 01:13:00,
2013-04-19 21:14:00,44.6,26.6,28.82,WSW,254,4.2,8.7,49,0.00,,,0.12,WUHU216WMR100,2013-04-20 01:14:00,
2013-04-19 21:15:00,44.6,26.6,28.82,NNW,337,4.7,15.4,49,0.00,,,0.12,WUHU216WMR100,2013-04-20 01:15:00,
2013-04-19 21:16:00,44.6,26.0,28.82,SSW,202,7.4,15.4,48,0.00,,,0.12,WUHU216WMR100,2013-04-20 01:16:00,
2013-04-19 21:17:00,44.6,26.0,28.82,West,273,6.4,15.4,48,0.00,,,0.12,WUHU216WMR100,2013-04-20 01:17:00,
2013-04-19 21:18:00,44.4,26.4,28.85,WSW,247,6.0,15.4,49,0.00,,,0.12,WUHU216WMR100,2013-04-20 01:18:00,
2013-04-19 21:19:00,44.6,26.6,28.85,West,270,7.4,15.4,49,0.00,,,0.12,WUHU216WMR100,2013-04-20 01:19:00,
2013-04-19 21:20:00,44.4,26.9,28.85,WNW,283,5.7,15.4,50,0.00,,,0.12,WUHU216WMR100,2013-04-20 01:20:00,
2013-04-19 21:21:00,44.6,26.6,28.85,WNW,292,6.7,15.4,49,0.00,,,0.12,WUHU216WMR100,2013-04-20 01:21:00,
2013-04-19 21:22:00,44.6,27.1,28.85,NW,325,4.9,15.4,50,0.00,,,0.12,WUHU216WMR100,2013-04-20 01:22:00,
2013-04-19 21:23:00,44.4,26.9,28.85,NW,315,4.3,15.4,50,0.00,,,0.12,WUHU216WMR100,2013-04-20 01:23:00,
2013-04-19 21:24:00,44.4,26.9,28.85,ESE,112,6.0,17.2,50,0.00,,,0.12,WUHU216WMR100,2013-04-20 01:24:00,
2013-04-19 21:25:00,44.2,26.2,28.85,NNW,337,9.6,17.2,49,0.00,,,0.12,WUHU216WMR100,2013-04-20 01:25:00,
2013-04-19 21:26:00,44.1,26.6,28.85,NW,316,8.8,17.2,50,0.00,,,0.12,WUHU216WMR100,2013-04-20 01:26:00,
2013-04-19 21:27:00,44.1,26.6,28.85,WNW,286,7.3,17.2,50,0.00,,,0.12,WUHU216WMR100,2013-04-20 01:27:00,
2013-04-19 21:28:00,43.9,26.4,28.85,West,259,5.3,17.2,50,0.00,,,0.12,WUHU216WMR100,2013-04-20 01:28:00,
2013-04-19 21:29:00,43.9,26.4,28.85,SSW,202,4.7,17.2,50,0.00,,,0.12,WUHU216WMR100,2013-04-20 01:29:00,
2013-04-19 21:30:00,43.7,26.2,28.85,NW,315,6.9,18.1,50,0.00,,,0.12,WUHU216WMR100,2013-04-20 01:30:00,
2013-04-19 21:31:00,43.5,26.0,28.85,NNW,337,10.5,18.1,50,0.00,,,0.12,WUHU216WMR100,2013-04-20 01:31:00,
2013-04-19 21:32:00,43.5,26.0,28.85,WNW,284,9.6,18.1,50,0.00,,,0.12,WUHU216WMR100,2013-04-20 01:32:00,
2013-04-19 21:33:00,43.5,26.0,28.85,WNW,291,8.4,18.1,50,0.00,,,0.12,WUHU216WMR100,2013-04-20 01:33:00,
2013-04-19 21:34:00,43.3,25.9,28.85,WNW,302,7.2,18.1,50,0.00,,,0.12,WUHU216WMR100,2013-04-20 01:34:00,
2013-04-19 21:35:00,43.3,26.3,28.85,WNW,293,6.3,18.1,51,0.00,,,0.12,WUHU216WMR100,2013-04-20 01:35:00,
2013-04-19 21:36:00,43.2,25.8,28.85,WSW,247,6.5,18.1,50,0.00,,,0.12,WUHU216WMR100,2013-04-20 01:36:00,
2013-04-19 21:37:00,43.2,25.8,28.85,WNW,292,7.2,18.1,50,0.00,,,0.12,WUHU216WMR100,2013-04-20 01:37:00,
2013-04-19 21:38:00,43.2,26.3,28.85,West,280,5.9,18.1,51,0.00,,,0.12,WUHU216WMR100,2013-04-20 01:38:00,
2013-04-19 21:39:00,43.2,26.3,28.85,NNW,337,4.5,18.1,51,0.00,,,0.12,WUHU216WMR100,2013-04-20 01:39:00,
2013-04-19 21:40:00,43.0,26.1,28.85,WNW,292,4.7,15.4,51,0.00,,,0.12,WUHU216WMR100,2013-04-20 01:40:00,
2013-04-19 21:41:00,43.0,26.1,28.85,WNW,293,4.1,15.4,51,0.00,,,0.12,WUHU216WMR100,2013-04-20 01:41:00,
2013-04-19 21:42:00,43.0,26.6,28.85,WSW,247,3.6,15.4,52,0.00,,,0.12,WUHU216WMR100,2013-04-20 01:42:00,
2013-04-19 21:43:00,43.0,26.1,28.85,WSW,247,3.6,15.4,51,0.00,,,0.12,WUHU216WMR100,2013-04-20 01:43:00,
2013-04-19 21:44:00,43.0,26.1,28.85,WSW,247,5.4,12.3,51,0.00,,,0.12,WUHU216WMR100,2013-04-20 01:44:00,
2013-04-19 21:45:00,42.8,25.9,28.85,WSW,247,6.0,12.3,51,0.00,,,0.12,WUHU216WMR100,2013-04-20 01:45:00,
2013-04-19 21:46:00,42.8,25.9,28.85,SSW,202,7.4,10.7,51,0.00,,,0.12,WUHU216WMR100,2013-04-20 01:46:00,
2013-04-19 21:47:00,42.8,25.9,28.85,West,263,6.1,10.7,51,0.00,,,0.12,WUHU216WMR100,2013-04-20 01:47:00,
2013-04-19 21:48:00,42.8,25.4,28.85,WSW,247,5.8,10.7,50,0.00,,,0.12,WUHU216WMR100,2013-04-20 01:48:00,
2013-04-19 21:49:00,42.8,25.4,28.85,WSW,247,6.7,10.7,50,0.00,,,0.12,WUHU216WMR100,2013-04-20 01:49:00,
2013-04-19 21:50:00,42.8,25.4,28.85,WNW,290,6.3,10.7,50,0.00,,,0.12,WUHU216WMR100,2013-04-20 01:50:00,
2013-04-19 21:51:00,42.8,25.4,28.85,WSW,247,6.0,14.3,50,0.00,,,0.12,WUHU216WMR100,2013-04-20 01:51:00,
2013-04-19 21:52:00,42.8,25.4,28.85,West,270,7.2,14.3,50,0.00,,,0.12,WUHU216WMR100,2013-04-20 01:52:00,
2013-04-19 21:53:00,42.6,25.7,28.85,West,268,5.8,14.3,51,0.00,,,0.12,WUHU216WMR100,2013-04-20 01:53:00,
2013-04-19 21:54:00,42.6,25.7,28.85,WSW,254,4.0,14.3,51,0.00,,,0.12,WUHU216WMR100,2013-04-20 01:54:00,
2013-04-19 21:55:00,42.6,25.7,28.85,SSW,202,5.6,14.3,51,0.00,,,0.12,WUHU216WMR100,2013-04-20 01:55:00,
2013-04-19 21:56:00,42.6,25.7,28.85,WNW,292,5.6,14.3,51,0.00,,,0.12,WUHU216WMR100,2013-04-20 01:56:00,
2013-04-19 21:57:00,42.6,25.7,28.85,West,270,5.6,14.3,51,0.00,,,0.12,WUHU216WMR100,2013-04-20 01:57:00,
2013-04-19 21:58:00,42.6,25.7,28.85,NNW,337,6.3,14.3,51,0.00,,,0.12,WUHU216WMR100,2013-04-20 01:58:00,
2013-04-19 21:59:00,42.6,25.7,28.85,West,277,6.0,14.3,51,0.00,,,0.12,WUHU216WMR100,2013-04-20 01:59:00,
2013-04-19 22:00:00,42.4,25.5,28.85,West,275,5.2,14.3,51,0.00,,,0.12,WUHU216WMR100,2013-04-20 02:00:00,
2013-04-19 22:01:00,42.4,26.0,28.85,WSW,247,6.7,11.0,52,0.00,,,0.12,WUHU216WMR100,2013-04-20 02:01:00,
2013-04-19 22:02:00,42.4,25.5,28.88,West,263,6.6,12.8,51,0.00,,,0.12,WUHU216WMR100,2013-04-20 02:02:00,
2013-04-19 22:03:00,42.4,25.5,28.88,WSW,247,7.4,12.8,51,0.00,,,0.12,WUHU216WMR100,2013-04-20 02:03:00,
2013-04-19 22:04:00,42.3,25.9,28.88,NW,304,6.6,12.8,52,0.00,,,0.12,WUHU216WMR100,2013-04-20 02:04:00,
2013-04-19 22:05:00,42.3,25.9,28.88,WSW,247,8.9,12.8,52,0.00,,,0.12,WUHU216WMR100,2013-04-20 02:05:00,
2013-04-19 22:06:00,42.3,25.9,28.88,West,265,7.6,12.8,52,0.00,,,0.12,WUHU216WMR100,2013-04-20 02:06:00,
2013-04-19 22:07:00,42.3,25.9,28.88,WSW,247,5.6,12.8,52,0.00,,,0.12,WUHU216WMR100,2013-04-20 02:07:00,
2013-04-19 22:08:00,42.3,26.4,28.88,West,270,6.3,12.8,53,0.00,,,0.12,WUHU216WMR100,2013-04-20 02:08:00,
2013-04-19 22:09:00,42.3,26.4,28.88,West,260,5.2,12.8,53,0.00,,,0.12,WUHU216WMR100,2013-04-20 02:09:00,
2013-04-19 22:10:00,42.1,26.2,28.88,WSW,253,4.6,12.8,53,0.00,,,0.12,WUHU216WMR100,2013-04-20 02:10:00,
2013-04-19 22:11:00,42.1,26.2,28.88,WSW,247,4.9,12.8,53,0.00,,,0.12,WUHU216WMR100,2013-04-20 02:11:00,
2013-04-19 22:12:00,42.1,26.7,28.88,West,259,4.6,10.7,54,0.00,,,0.12,WUHU216WMR100,2013-04-20 02:12:00,
2013-04-19 22:13:00,42.1,26.7,28.88,WSW,247,4.3,10.7,54,0.00,,,0.12,WUHU216WMR100,2013-04-20 02:13:00,
2013-04-19 22:14:00,42.1,26.7,28.88,WNW,292,4.5,8.9,54,0.00,,,0.12,WUHU216WMR100,2013-04-20 02:14:00,
2013-04-19 22:15:00,42.1,26.7,28.88,West,261,4.2,8.9,54,0.00,,,0.12,WUHU216WMR100,2013-04-20 02:15:00,
2013-04-19 22:16:00,41.9,26.5,28.88,WSW,247,4.9,8.5,54,0.00,,,0.12,WUHU216WMR100,2013-04-20 02:16:00,
2013-04-19 22:17:00,41.9,26.5,28.88,WSW,247,5.4,8.5,54,0.00,,,0.12,WUHU216WMR100,2013-04-20 02:17:00,
2013-04-19 22:18:00,41.9,26.5,28.88,WNW,283,4.9,8.5,54,0.00,,,0.12,WUHU216WMR100,2013-04-20 02:18:00,
2013-04-19 22:19:00,41.9,26.9,28.88,West,270,4.9,8.5,55,0.00,,,0.12,WUHU216WMR100,2013-04-20 02:19:00,
2013-04-19 22:20:00,41.9,26.9,28.88,WSW,251,4.3,8.5,55,0.00,,,0.12,WUHU216WMR100,2013-04-20 02:20:00,
2013-04-19 22:21:00,41.9,26.9,28.88,WSW,250,3.2,8.5,55,0.00,,,0.12,WUHU216WMR100,2013-04-20 02:21:00,
2013-04-19 22:22:00,41.7,26.7,28.88,WNW,292,3.4,8.5,55,0.00,,,0.12,WUHU216WMR100,2013-04-20 02:22:00,
2013-04-19 22:23:00,41.9,27.4,28.88,NNW,337,3.8,8.5,56,0.00,,,0.12,WUHU216WMR100,2013-04-20 02:23:00,
2013-04-19 22:24:00,41.7,27.2,28.88,WSW,247,4.9,9.6,56,0.00,,,0.12,WUHU216WMR100,2013-04-20 02:24:00,
2013-04-19 22:25:00,41.7,27.2,28.88,WSW,247,5.6,9.6,56,0.00,,,0.12,WUHU216WMR100,2013-04-20 02:25:00,
2013-04-19 22:26:00,41.5,27.0,28.88,WSW,254,5.0,9.8,56,0.00,,,0.12,WUHU216WMR100,2013-04-20 02:26:00,
2013-04-19 22:27:00,41.5,27.0,28.88,WSW,247,5.6,9.8,56,0.00,,,0.12,WUHU216WMR100,2013-04-20 02:27:00,
2013-04-19 22:28:00,41.5,27.0,28.88,WSW,244,4.6,9.8,56,0.00,,,0.12,WUHU216WMR100,2013-04-20 02:28:00,
2013-04-19 22:29:00,41.5,27.0,28.88,WSW,247,4.3,9.8,56,0.00,,,0.12,WUHU216WMR100,2013-04-20 02:29:00,
2013-04-19 22:30:00,41.5,27.0,28.88,WSW,249,3.9,9.8,56,0.00,,,0.12,WUHU216WMR100,2013-04-20 02:30:00,
2013-04-19 22:31:00,41.5,27.0,28.88,North,0,4.3,9.8,56,0.00,,,0.12,WUHU216WMR100,2013-04-20 02:31:00,
2013-04-19 22:32:00,41.5,27.0,28.88,SW,236,4.0,9.8,56,0.00,,,0.12,WUHU216WMR100,2013-04-20 02:32:00,
2013-04-19 22:33:00,41.4,26.5,28.88,WSW,253,3.8,9.8,55,0.00,,,0.12,WUHU216WMR100,2013-04-20 02:33:00,
2013-04-19 22:34:00,41.4,26.5,28.88,WSW,257,3.8,9.8,55,0.00,,,0.12,WUHU216WMR100,2013-04-20 02:34:00,
2013-04-19 22:35:00,41.4,26.5,28.88,WNW,292,5.4,9.8,55,0.00,,,0.12,WUHU216WMR100,2013-04-20 02:35:00,
2013-04-19 22:36:00,41.4,26.5,28.88,West,260,4.8,8.1,55,0.00,,,0.12,WUHU216WMR100,2013-04-20 02:36:00,
2013-04-19 22:37:00,41.4,26.9,28.88,WNW,292,4.5,8.1,56,0.00,,,0.12,WUHU216WMR100,2013-04-20 02:37:00,
2013-04-19 22:38:00,41.4,26.5,28.88,West,270,4.7,8.1,55,0.00,,,0.12,WUHU216WMR100,2013-04-20 02:38:00,
2013-04-19 22:39:00,41.4,26.9,28.88,WSW,243,4.2,8.1,56,0.00,,,0.12,WUHU216WMR100,2013-04-20 02:39:00,
2013-04-19 22:40:00,41.4,26.9,28.88,SSW,202,3.8,8.1,56,0.00,,,0.12,WUHU216WMR100,2013-04-20 02:40:00,
2013-04-19 22:41:00,41.4,26.9,28.88,West,266,3.0,8.1,56,0.00,,,0.12,WUHU216WMR100,2013-04-20 02:41:00,
2013-04-19 22:42:00,41.4,26.9,28.88,North,0,3.8,8.1,56,0.00,,,0.12,WUHU216WMR100,2013-04-20 02:42:00,
2013-04-19 22:43:00,41.4,26.9,28.88,West,277,3.3,8.9,56,0.00,,,0.12,WUHU216WMR100,2013-04-20 02:43:00,
2013-04-19 22:44:00,41.2,26.3,28.88,NW,315,6.3,8.9,55,0.00,,,0.12,WUHU216WMR100,2013-04-20 02:44:00,
2013-04-19 22:45:00,41.2,26.3,28.88,West,268,4.7,8.9,55,0.00,,,0.12,WUHU216WMR100,2013-04-20 02:45:00,
2013-04-19 22:46:00,41.2,26.3,28.88,WSW,246,3.5,8.9,55,0.00,,,0.12,WUHU216WMR100,2013-04-20 02:46:00,
2013-04-19 22:47:00,41.2,26.3,28.88,WNW,292,4.0,8.9,55,0.00,,,0.12,WUHU216WMR100,2013-04-20 02:47:00,
2013-04-19 22:48:00,41.2,26.3,28.88,WNW,296,3.7,8.9,55,0.00,,,0.12,WUHU216WMR100,2013-04-20 02:48:00,
2013-04-19 22:49:00,41.2,26.3,28.88,SSW,202,3.4,8.9,55,0.00,,,0.12,WUHU216WMR100,2013-04-20 02:49:00,
2013-04-19 22:50:00,41.4,26.5,28.88,SW,227,2.8,8.9,55,0.00,,,0.12,WUHU216WMR100,2013-04-20 02:50:00,
2013-04-19 22:51:00,41.4,26.5,28.88,WNW,292,2.9,8.9,55,0.00,,,0.12,WUHU216WMR100,2013-04-20 02:51:00,
2013-04-19 22:52:00,41.2,26.3,28.88,NW,315,3.6,8.9,55,0.00,,,0.12,WUHU216WMR100,2013-04-20 02:52:00,
2013-04-19 22:53:00,41.2,25.8,28.88,WNW,295,3.4,7.8,54,0.00,,,0.12,WUHU216WMR100,2013-04-20 02:53:00,
2013-04-19 22:54:00,41.2,25.8,28.88,WNW,292,4.3,6.5,54,0.00,,,0.12,WUHU216WMR100,2013-04-20 02:54:00,
2013-04-19 22:55:00,41.4,26.0,28.88,West,262,3.6,6.5,54,0.00,,,0.12,WUHU216WMR100,2013-04-20 02:55:00,
2013-04-19 22:56:00,41.4,26.0,28.88,West,269,3.0,6.5,54,0.00,,,0.12,WUHU216WMR100,2013-04-20 02:56:00,
2013-04-19 22:57:00,41.4,26.0,28.88,NNW,337,4.3,6.5,54,0.00,,,0.12,WUHU216WMR100,2013-04-20 02:57:00,
2013-04-19 22:58:00,41.4,26.0,28.88,WNW,298,3.4,6.0,54,0.00,,,0.12,WUHU216WMR100,2013-04-20 02:58:00,
2013-04-19 22:59:00,41.4,26.0,28.88,West,273,2.5,6.0,54,0.00,,,0.12,WUHU216WMR100,2013-04-20 02:59:00,
2013-04-19 23:00:00,41.4,26.0,28.88,WSW,247,2.9,6.0,54,0.00,,,0.12,WUHU216WMR100,2013-04-20 03:00:00,
2013-04-19 23:01:00,41.4,26.0,28.88,WSW,256,2.8,6.5,54,0.00,,,0.12,WUHU216WMR100,2013-04-20 03:01:00,
2013-04-19 23:02:00,41.4,25.5,28.88,NNW,337,4.3,6.5,53,0.00,,,0.12,WUHU216WMR100,2013-04-20 03:02:00,
2013-04-19 23:03:00,41.4,25.1,28.88,WSW,247,5.4,8.5,52,0.00,,,0.12,WUHU216WMR100,2013-04-20 03:03:00,
2013-04-19 23:08:00,41.4,25.1,28.88,West,263,4.4,9.8,52,0.00,,,0.12,WUHU216WMR100,2013-04-20 03:08:00,
2013-04-19 23:13:00,41.4,24.1,28.88,WNW,292,6.0,9.8,50,0.00,,,0.12,WUHU216WMR100,2013-04-20 03:13:00,
2013-04-19 23:18:00,41.5,23.7,28.88,WSW,247,6.5,9.8,49,0.00,,,0.12,WUHU216WMR100,2013-04-20 03:18:00,
2013-04-19 23:23:00,41.5,23.7,28.88,WNW,289,4.1,9.8,49,0.00,,,0.12,WUHU216WMR100,2013-04-20 03:23:00,
2013-04-19 23:59:00,41.2,23.4,28.88,WSW,247,2.7,4.3,49,0.00,,,0.12,WUHU216WMR100,2013-04-20 03:59:00,